N8IFU Weather Reports


time (UTC)temp
F
wind
direction
speed
knots
gust
knots
rain 1hr
in
rain 24hr
in
rain mn
in
humidity
%
barometer
mb
20260509000049 63 233 1.7 5.2 0.00 0.00 0.00 38 1006.0
20260508234548 64 252 1.7 7.0 0.00 0.00 0.00 36 1006.0
20260508233047 64 259 0.9 5.2 0.00 0.00 0.00 38 1006.0
20260508231545 64 229 1.7 5.2 0.00 0.00 0.00 38 1006.0
20260508230046 65 272 0.9 5.2 0.00 0.00 0.00 37 1006.1
20260508224611 64 233 1.7 7.8 0.00 0.00 0.00 37 1006.0
20260508223053 65 229 3.5 10.4 0.00 0.00 0.00 35 1006.1
20260508221547 65 244 2.6 7.8 0.00 0.00 0.00 37 1006.3
20260508220055 66 233 2.6 4.3 0.00 0.00 0.00 36 1006.2
20260508214543 64 237 1.7 7.8 0.00 0.00 0.00 39 1006.4
20260508213048 65 121 1.7 6.1 0.00 0.00 0.00 36 1006.6
20260508211555 65 220 3.5 7.0 0.00 0.00 0.00 34 1006.6
20260508210055 64 275 4.3 12.2 0.00 0.00 0.00 36 1006.7
20260508204551 63 248 3.5 10.4 0.00 0.00 0.00 36 1006.9
20260508203049 64 252 1.7 7.0 0.00 0.00 0.00 37 1007.0
20260508201544 64 132 1.7 7.8 0.00 0.00 0.00 39 1007.2
20260508200052 63 274 4.3 11.3 0.00 0.00 0.00 36 1007.5
20260508194548 63 251 3.5 10.4 0.00 0.00 0.00 36 1007.5
20260508193048 63 231 1.7 5.2 0.00 0.00 0.00 42 1007.8
20260508191550 63 200 2.6 11.3 0.00 0.00 0.00 37 1008.4
20260508190046 63 123 1.7 7.0 0.00 0.00 0.00 39 1008.5
20260508184551 62 325 3.5 7.0 0.00 0.00 0.00 35 1008.6
20260508183049 63 256 2.6 7.0 0.00 0.00 0.00 39 1008.8
20260508181547 62 319 0.9 6.1 0.00 0.00 0.00 44 1008.8
20260508180048 61 246 0.9 7.8 0.00 0.00 0.00 42 1009.0
20260508174558 60 114 1.7 8.7 0.00 0.00 0.00 41 1009.4
20260508173051 60 286 2.6 6.1 0.00 0.00 0.00 38 1009.7
20260508171549 58 240 1.7 7.8 0.00 0.00 0.00 39 1009.9
20260508170049 58 245 3.5 10.4 0.00 0.00 0.00 41 1010.3
20260508164553 58 240 4.3 8.7 0.00 0.00 0.00 41 1010.3
20260508163046 58 276 1.7 9.6 0.00 0.00 0.00 42 1010.6
20260508161558 58 266 1.7 6.1 0.00 0.00 0.00 44 1010.6
20260508160051 57 0 2.6 6.1 0.00 0.00 0.00 45 1010.8
20260508154607 56 233 3.5 7.0 0.00 0.00 0.00 46 1010.8
20260508153047 56 233 2.6 5.2 0.00 0.00 0.00 51 1010.8
20260508151553 56 263 1.7 5.2 0.00 0.00 0.00 47 1011.1
20260508150058 56 247 0.9 4.3 0.00 0.00 0.00 47 1011.1
20260508144547 55 234 0.0 1.7 0.00 0.00 0.00 54 1011.3
20260508143104 55 113 0.9 2.6 0.00 0.00 0.00 52 1011.3
20260508141545 55 0 0.0 0.9 0.00 0.00 0.00 52 1011.5
20260508140104 54 15 0.0 0.9 0.00 0.00 0.00 58 1011.6
20260508134548 53 69 0.0 1.7 0.00 0.00 0.00 65 1011.7
20260508133057 51 0 0.0 1.7 0.00 0.00 0.00 71 1011.7
20260508131547 48 0 0.9 1.7 0.00 0.00 0.00 75 1011.7
20260508130044 46 127 0.0 1.7 0.00 0.00 0.00 82 1011.8
20260508124549 45 0 0.0 2.6 0.00 0.00 0.00 85 1011.5
20260508123048 43 139 0.9 2.6 0.00 0.00 0.00 88 1011.5
20260508121548 42 113 0.0 0.9 0.00 0.00 0.00 92 1011.4
20260508120110 40 92 0.0 1.7 0.00 0.00 0.00 93 1011.3
20260508114546 39 103 0.9 1.7 0.00 0.00 0.00 94 1011.1
20260508113052 39 109 0.0 1.7 0.00 0.00 0.00 94 1011.0
20260508111556 38 0 0.0 0.9 0.00 0.00 0.00 94 1010.8
20260508110050 37 0 0.0 0.0 0.00 0.00 0.00 93 1010.7
20260508104547 36 0 0.0 0.0 0.00 0.00 0.00 92 1010.7
20260508103051 36 0 0.0 0.0 0.00 0.00 0.00 92 1010.5
20260508101547 35 0 0.0 0.0 0.00 0.00 0.00 91 1010.5
20260508100051 35 0 0.0 0.0 0.00 0.00 0.00 91 1010.6
20260508094550 35 0 0.0 0.0 0.00 0.00 0.00 91 1010.5
20260508093050 36 0 0.0 0.0 0.00 0.00 0.00 90 1010.6
20260508091600 36 0 0.0 0.0 0.00 0.00 0.00 90 1010.7
20260508090050 36 0 0.0 0.0 0.00 0.00 0.00 89 1010.7
20260508084556 37 0 0.0 0.0 0.00 0.00 0.00 89 1010.7
20260508083103 37 0 0.0 0.0 0.00 0.00 0.00 88 1010.7
20260508081551 38 0 0.0 0.0 0.00 0.00 0.00 88 1010.8
20260508080104 39 0 0.0 0.0 0.00 0.00 0.00 87 1010.8
20260508074549 40 0 0.0 0.0 0.00 0.00 0.00 88 1010.7
20260508073055 40 0 0.0 0.0 0.00 0.00 0.00 88 1010.8
20260508071545 40 0 0.0 0.0 0.00 0.00 0.00 87 1011.0
20260508070043 40 0 0.0 0.0 0.00 0.00 0.00 87 1010.9
20260508064557 41 0 0.0 0.0 0.00 0.00 0.00 87 1010.9
20260508063052 40 0 0.0 0.0 0.00 0.00 0.00 87 1010.9
20260508061548 40 0 0.0 0.0 0.00 0.00 0.00 86 1010.9
20260508060047 40 0 0.0 0.0 0.00 0.00 0.00 85 1010.9
20260508054549 40 0 0.0 0.0 0.00 0.00 0.00 83 1011.1
20260508053052 40 0 0.0 0.0 0.00 0.00 0.00 81 1011.0
20260508051547 41 0 0.0 0.9 0.00 0.00 0.00 79 1011.2
20260508050103 42 0 0.0 0.9 0.00 0.00 0.00 75 1011.1
20260508044549 44 0 0.0 0.9 0.00 0.00 0.00 73 1011.2
20260508043051 46 236 0.9 1.7 0.00 0.00 0.00 71 1011.2
20260508041545 47 0 0.0 3.5 0.00 0.00 0.00 65 1011.3
20260508040053 48 270 1.7 3.5 0.00 0.00 0.00 66 1011.4
20260508034550 47 0 0.0 1.7 0.00 0.00 0.00 64 1010.9
20260508033050 47 0 0.0 1.7 0.00 0.00 0.00 62 1010.9
20260508031548 48 133 0.0 3.5 0.00 0.00 0.00 61 1011.0
20260508030057 49 0 0.0 2.6 0.00 0.00 0.00 59 1011.3
20260508024552 49 0 0.0 0.9 0.00 0.00 0.00 58 1011.4
20260508023041 49 0 1.7 3.5 0.00 0.00 0.00 57 1011.3
20260508021550 48 0 0.0 2.6 0.00 0.00 0.00 56 1011.2
20260508020055 48 0 0.9 2.6 0.00 0.00 0.00 58 1011.2
20260508014549 48 0 0.0 0.0 0.00 0.00 0.00 56 1011.2
20260508013050 49 0 0.0 0.9 0.00 0.00 0.00 56 1011.0
20260508011549 49 0 0.9 2.6 0.00 0.00 0.00 53 1010.9
20260508010055 50 0 0.0 2.6 0.00 0.00 0.00 51 1010.6
20260508004553 50 236 0.9 6.1 0.00 0.00 0.00 50 1010.6
20260508003053 51 239 1.7 5.2 0.00 0.00 0.00 49 1011.0
20260508001549 51 243 0.9 3.5 0.00 0.00 0.00 50 1010.5